Weather observations for the past three days for
Pompano Beach, Pompano Beach Airpark
Imperial (Metric)
Date Time (edt) Wind (mph) Vis. (mi.) Weather Sky Cond. Temperature (ºF) Relative Humidity Wind Chill (°F) Heat Index (°F) Pressure Precipitation (in)
Air Dwpt 6 hour altimeter (in) sea level (mb) 1 hr 3 hr 6 hr
Max. Min.
02 20:53 W 15 10.00 Fair CLR 86 64.9 49% 88 29.9 1012.6
02 19:53 W 17 G 24 10.00 Fair CLR 89.1 61 97 89.1 39% 89 29.88 1011.9
02 18:53 W 10 10.00 Fair CLR 91 57.9 33% 90 29.85 1010.8
02 17:53 W 15 G 23 10.00 Fair CLR 95 57.9 29% 94 29.84 1010.4
02 16:53 SW 17 G 26 10.00 Fair CLR 95 59 30% 94 29.83 1010.2
02 15:53 SW 18 G 25 10.00 Fair CLR 96.1 61 31% 97 29.84 1010.5
02 14:53 W 20 G 30 10.00 Partly Cloudy SCT060 96.1 62.1 32% 97 29.85 1011.0
02 13:53 S 16 10.00 Mostly Cloudy SCT060 BKN070 93.9 66 93.9 79 40% 97 29.86 1011.3
02 12:53 SE 13 G 24 10.00 A Few Clouds FEW043 89.1 75 63% 99 29.88 1011.8
02 11:53 SE 17 G 24 10.00 Mostly Cloudy BKN039 BKN048 87.1 73.9 65% 95 29.88 1012.0
02 10:53 S 13 G 22 10.00 Mostly Cloudy FEW024 SCT036 BKN045 84.9 73 68% 92 29.9 1012.4
02 09:53 S 12 10.00 Fair CLR 86 71.1 61% 92 29.89 1012.1
02 08:53 S 13 10.00 A Few Clouds FEW020 82.9 73 72% 89 29.89 1012.1
02 07:53 S 6 10.00 Fair CLR 79 71.1 79 75 77% 82 29.89 1012.2
02 06:53 SW 3 10.00 Mostly Cloudy BKN075 75.9 70 82% 77 29.89 1012.2
02 05:53 Calm 10.00 Overcast FEW020 OVC080 77 69.1 77% 79 29.89 1012.2
02 04:53 Calm 10.00 Mostly Cloudy BKN075 75.9 68 77% 77 29.88 1012.0
02 03:53 Calm 10.00 Mostly Cloudy BKN070 75.9 68 77% 77 29.88 1012.0
02 02:53 NW 6 10.00 Fair CLR 75.9 66.9 74% 77 29.89 1012.2
02 01:53 W 3 10.00 Fair CLR 78.1 72 81 78.1 82% 80 29.89 1012.3
02 00:53 S 3 10.00 Fair CLR 79 72 79% 82 29.9 1012.6
01 23:53 S 6 10.00 Partly Cloudy SCT027 80.1 72 76% 84 29.92 1013.1
01 22:53 S 8 10.00 Fair CLR 80.1 71.1 74% 84 29.91 1012.9
01 21:53 S 10 10.00 Fair CLR 80.1 71.1 74% 84 29.89 1012.4
01 20:53 S 12 10.00 Fair CLR 81 69.1 67% 84 29.88 1011.8
01 19:53 S 12 10.00 Fair CLR 81 69.1 87.1 81 67% 84 29.85 1010.9
01 18:53 SE 15 10.00 Fair CLR 82 70 67% 86 29.85 1010.8
01 17:53 SE 15 10.00 Fair CLR 82.9 69.1 63% 87 29.84 1010.6
01 16:53 SE 15 10.00 Fair CLR 84 70 63% 88 29.84 1010.7
01 15:53 SE 16 10.00 Fair CLR 84 69.1 61% 88 29.86 1011.3
01 14:53 SE 15 10.00 Fair CLR 84.9 68 57% 88 29.89 1012.1
01 13:53 SE 13 10.00 Fair CLR 86 66.9 86 73 53% 89 29.9 1012.6
01 12:53 SE 14 10.00 Partly Cloudy SCT045 86 66 51% 88 29.91 1012.9
01 11:53 SE 10 10.00 A Few Clouds FEW041 86 68 55% 89 29.92 1013.4
01 10:53 Calm 10.00 Fair CLR 84 64.9 53% 86 29.93 1013.5
01 09:53 NW 5 10.00 Fair CLR 81 69.1 67% 84 29.93 1013.7
01 08:53 W 6 10.00 Fair CLR 77 70 79% 79 29.93 1013.6
01 07:53 W 6 10.00 Fair CLR 73 69.1 75 71.1 87% 29.93 1013.7
01 06:53 SW 3 10.00 Fair CLR 71.1 66.9 87% 29.91 1013.0
01 05:53 W 3 10.00 Fair CLR 71.1 66.9 87% 29.9 1012.5
01 04:53 W 5 10.00 Fair CLR 73 66.9 81% 29.89 1012.4
01 03:53 SW 5 10.00 Fair CLR 73 64.9 76% 29.88 1012.0
01 02:53 W 5 10.00 Fair CLR 73.9 64 71% 29.88 1011.9
01 01:53 W 7 10.00 Fair CLR 75 64 82 75 69% 77 29.9 1012.4
01 00:53 W 6 10.00 Fair CLR 77 64 64% 79 29.9 1012.6
30 23:53 W 6 10.00 Fair CLR 78.1 63 60% 80 29.92 1013.1
30 22:53 W 8 10.00 Fair CLR 80.1 62.1 54% 81 29.9 1012.4
30 21:53 W 10 10.00 Fair CLR 82 64.9 56% 84 29.88 1012.0
30 20:53 S 8 10.00 Partly Cloudy SCT060 81 69.1 67% 84 29.87 1011.4
30 19:53 S 13 10.00 Mostly Cloudy BKN070 81 68 87.1 80.1 65% 84 29.85 1010.9
30 18:53 S 17 G 23 10.00 A Few Clouds FEW065 81 69.1 67% 84 29.84 1010.5
30 17:53 S 18 G 23 10.00 A Few Clouds FEW065 82.9 66.9 59% 86 29.83 1010.3
30 16:53 S 15 10.00 Fair CLR 84.9 69.1 59% 89 29.84 1010.5
30 15:53 SE 16 10.00 A Few Clouds FEW065 84.9 69.1 59% 89 29.85 1011.0
30 14:53 SE 14 G 24 10.00 A Few Clouds FEW060 84 69.1 61% 88 29.88 1011.8
30 13:53 SE 13 10.00 A Few Clouds FEW050 87.1 68 88 75 53% 91 29.88 1011.9
30 12:53 SW 9 10.00 Fair CLR 88 63 43% 89 29.9 1012.5
30 11:53 W 7 10.00 Fair CLR 84.9 62.1 46% 85 29.93 1013.5
30 10:53 SW 7 10.00 Fair CLR 84 63 49% 85 29.94 1013.9
30 09:53 SW 5 10.00 Fair CLR 80.1 64 58% 82 29.93 1013.6
30 08:53 W 3 10.00 Fair CLR 78.1 66 67% 80 29.92 1013.4
30 07:53 SW 5 10.00 Fair CLR 75 69.1 77 72 82% 75 29.93 1013.6
30 06:53 W 5 10.00 Fair CLR 72 66.9 84% 29.92 1013.2
30 05:53 W 3 10.00 Fair CLR 73 66 79% 29.9 1012.7
30 04:53 SW 5 10.00 Fair CLR 73.9 66.9 79% 29.91 1012.8
30 03:53 SW 5 10.00 Fair CLR 75 68 79% 76 29.91 1012.7
30 02:53 SW 5 10.00 A Few Clouds FEW050 75 69.1 82% 75 29.92 1013.2
30 01:53 W 6 10.00 Fair CLR 77 69.1 79 77 77% 79 29.93 1013.6
30 00:53 SW 6 10.00 A Few Clouds FEW041 77 69.1 77% 79 29.95 1014.1
29 23:53 S 6 10.00 Fair CLR 78.1 69.1 74% 80 29.95 1014.4
29 22:53 S 6 10.00 Fair CLR 79 68 69% 81 29.95 1014.3
29 21:53 S 8 10.00 Fair CLR 79 68 69% 81 29.95 1014.3
Date Time (edt) Wind (mph) Vis. (mi.) Weather Sky Cond. Air Dwpt Max. Min. Relative Humidity Wind Chill (°F) Heat Index (°F) altimeter (in) sea level (mb) 1 hr 3 hr 6 hr
6 hour
Temperature (ºF) Pressure Precipitation (in)